EJM81 KSAT-KSBP

Flight info

Callsign EJM81
Flight time N/A
Altitude 38000
Route ALISS7 ALISS FST J2 FIGMO SVC BAYTA GERME PMD
Aircraft C750/M-SBDE3FGHRWXY/S

Departure

Time N/A
Airport San Antonio International Airport (KSAT)

Arrival

Time 2026-04-30 19:55
Airport San Luis County Regional Airport (KSBP)
Time Latitude Longitude Altitude Speed Heading
2026-04-30 17:39 30.55252 -101.06713 38003 ft 452 kts 282°
2026-04-30 17:42 30.62903 -101.42131 37997 ft 457 kts 281°
2026-04-30 17:43 30.66728 -101.60021 37947 ft 456 kts 281°
2026-04-30 17:44 30.71274 -101.81459 37933 ft 456 kts 281°
2026-04-30 17:47 30.78015 -102.13595 37910 ft 455 kts 281°
2026-04-30 17:48 30.83216 -102.38686 37892 ft 456 kts 281°
2026-04-30 17:50 30.89107 -102.67418 37947 ft 456 kts 280°
2026-04-30 17:52 30.93470 -102.88920 37997 ft 454 kts 280°
2026-04-30 17:54 31.01585 -103.20684 37911 ft 455 kts 284°
2026-04-30 17:56 31.09251 -103.48767 37911 ft 454 kts 284°
2026-04-30 17:58 31.14643 -103.68674 37927 ft 453 kts 283°
2026-04-30 18:00 31.22178 -103.96719 37871 ft 451 kts 283°
2026-04-30 18:01 31.26821 -104.14137 37876 ft 449 kts 283°
2026-04-30 18:02 31.32346 -104.35003 37870 ft 448 kts 283°
2026-04-30 18:04 31.37835 -104.55886 37873 ft 447 kts 282°
2026-04-30 18:06 31.45074 -104.83657 37871 ft 446 kts 282°
2026-04-30 18:08 31.51315 -105.07826 37867 ft 444 kts 282°
2026-04-30 18:10 31.58417 -105.35586 37866 ft 445 kts 281°
2026-04-30 18:11 31.67255 -105.59093 37863 ft 451 kts 288°
2026-04-30 18:13 31.73774 -105.75872 37866 ft 452 kts 288°
2026-04-30 18:14 31.80259 -105.92637 37871 ft 452 kts 288°
2026-04-30 18:15 31.88037 -106.12847 37984 ft 452 kts 287°
2026-04-30 18:16 31.93197 -106.26319 38045 ft 452 kts 287°
2026-04-30 18:17 31.95779 -106.33081 38051 ft 452 kts 287°
2026-04-30 18:18 31.99646 -106.43230 38030 ft 452 kts 287°
2026-04-30 18:18 32.02218 -106.50000 38000 ft 452 kts 287°
2026-04-30 18:19 32.04788 -106.56775 38006 ft 453 kts 287°
2026-04-30 18:19 32.07352 -106.63548 38012 ft 453 kts 287°
2026-04-30 18:20 32.09900 -106.70293 38008 ft 453 kts 287°
2026-04-30 18:20 32.12460 -106.77083 38000 ft 453 kts 287°
2026-04-30 18:21 32.15020 -106.83886 38029 ft 453 kts 287°
2026-04-30 18:21 32.17573 -106.90683 38054 ft 453 kts 287°
2026-04-30 18:22 32.20129 -106.97504 38067 ft 454 kts 287°
2026-04-30 18:22 32.23952 -107.07730 38042 ft 454 kts 287°
2026-04-30 18:23 32.26501 -107.14564 38006 ft 454 kts 287°
2026-04-30 18:23 32.29046 -107.21400 37966 ft 454 kts 287°
2026-04-30 18:24 32.32843 -107.31628 37898 ft 455 kts 287°
2026-04-30 18:25 32.35382 -107.38484 37922 ft 455 kts 287°
2026-04-30 18:25 32.39189 -107.48790 37963 ft 455 kts 287°
2026-04-30 18:26 32.42987 -107.59104 37991 ft 456 kts 286°
2026-04-30 18:27 32.46754 -107.69363 37986 ft 454 kts 287°
2026-04-30 18:28 32.50540 -107.79707 37946 ft 455 kts 286°
2026-04-30 18:28 32.54311 -107.90039 37976 ft 455 kts 286°
2026-04-30 18:29 32.59309 -108.03787 38072 ft 455 kts 286°
2026-04-30 18:30 32.64208 -108.17613 38075 ft 450 kts 282°
2026-04-30 18:31 32.67189 -108.28138 38072 ft 450 kts 282°
2026-04-30 18:32 32.70159 -108.38709 38002 ft 450 kts 282°
2026-04-30 18:33 32.73134 -108.49266 37923 ft 449 kts 282°
2026-04-30 18:33 32.76096 -108.59829 37869 ft 449 kts 282°
2026-04-30 18:34 32.79047 -108.70405 37860 ft 449 kts 281°
2026-04-30 18:35 32.81011 -108.77457 37848 ft 450 kts 281°
2026-04-30 18:35 32.82973 -108.84522 37860 ft 449 kts 281°
2026-04-30 18:36 32.85899 -108.95097 37856 ft 452 kts 281°
2026-04-30 18:37 32.88845 -109.05775 37854 ft 453 kts 281°
2026-04-30 18:37 32.90809 -109.12921 37858 ft 455 kts 281°
2026-04-30 18:38 32.92777 -109.20091 37853 ft 456 kts 281°
2026-04-30 18:38 32.94741 -109.27273 37871 ft 456 kts 281°
2026-04-30 18:39 32.96709 -109.34484 37892 ft 458 kts 281°
2026-04-30 18:39 32.98678 -109.41722 37908 ft 460 kts 281°
2026-04-30 18:40 33.00652 -109.48989 37922 ft 461 kts 281°
2026-04-30 18:40 33.02620 -109.56261 37929 ft 461 kts 281°
2026-04-30 18:41 33.04570 -109.63473 37928 ft 459 kts 281°
2026-04-30 18:41 33.06522 -109.70724 37910 ft 460 kts 281°
2026-04-30 18:42 33.08479 -109.78013 37894 ft 464 kts 281°
2026-04-30 18:42 33.11442 -109.89077 37849 ft 470 kts 281°
2026-04-30 18:45 33.22030 -110.28974 37823 ft 476 kts 281°
2026-04-30 18:46 33.24014 -110.36519 37825 ft 476 kts 281°
2026-04-30 18:46 33.25996 -110.44074 37815 ft 476 kts 281°
2026-04-30 18:47 33.27972 -110.51625 37821 ft 476 kts 281°
2026-04-30 18:47 33.29933 -110.59143 37823 ft 477 kts 281°
2026-04-30 18:48 33.31901 -110.66707 37823 ft 476 kts 281°
2026-04-30 18:48 33.33865 -110.74274 37826 ft 476 kts 280°
2026-04-30 18:49 33.35824 -110.81847 37826 ft 476 kts 280°
2026-04-30 18:49 33.37775 -110.89407 37825 ft 475 kts 280°
2026-04-30 18:50 33.39717 -110.96961 37829 ft 476 kts 280°
2026-04-30 18:50 33.41659 -111.04513 37823 ft 472 kts 280°
2026-04-30 18:51 33.43579 -111.12030 37831 ft 473 kts 280°
2026-04-30 18:51 33.45505 -111.19580 37832 ft 475 kts 280°
2026-04-30 18:52 33.47433 -111.27154 37832 ft 476 kts 279°
2026-04-30 18:52 33.49356 -111.34739 37849 ft 476 kts 279°
2026-04-30 18:53 33.51192 -111.42296 37854 ft 474 kts 278°
2026-04-30 18:53 33.53003 -111.49957 37874 ft 475 kts 278°
2026-04-30 18:54 33.54784 -111.57541 37880 ft 475 kts 278°
2026-04-30 18:54 33.56577 -111.65188 37896 ft 476 kts 278°
2026-04-30 18:55 33.58366 -111.72840 37895 ft 477 kts 278°
2026-04-30 18:55 33.61042 -111.84330 37921 ft 477 kts 278°
2026-04-30 18:56 33.63696 -111.95791 37927 ft 478 kts 278°
2026-04-30 18:57 33.66366 -112.07360 37912 ft 479 kts 278°
2026-04-30 18:57 33.68140 -112.15082 37913 ft 480 kts 278°
2026-04-30 18:58 33.70782 -112.26632 37893 ft 482 kts 278°
2026-04-30 18:59 33.73445 -112.38310 37858 ft 484 kts 278°
2026-04-30 19:00 33.76989 -112.53955 37848 ft 486 kts 278°
2026-04-30 19:01 33.80537 -112.69716 37838 ft 488 kts 278°
2026-04-30 19:02 33.83184 -112.81552 37843 ft 492 kts 278°
2026-04-30 19:03 33.85715 -112.92904 37843 ft 494 kts 278°
2026-04-30 19:04 33.89266 -113.08937 37840 ft 497 kts 278°
2026-04-30 19:05 33.92798 -113.24993 37840 ft 499 kts 278°
2026-04-30 19:06 33.96332 -113.41165 37844 ft 501 kts 279°
2026-04-30 19:06 33.98985 -113.53373 37835 ft 502 kts 279°
2026-04-30 19:07 34.01630 -113.65616 37841 ft 504 kts 279°
2026-04-30 19:08 34.05159 -113.82049 37839 ft 508 kts 280°
2026-04-30 19:09 34.07800 -113.94421 37835 ft 510 kts 280°
2026-04-30 19:09 34.09566 -114.02728 37832 ft 512 kts 281°
2026-04-30 19:10 34.13091 -114.19406 37834 ft 513 kts 281°
2026-04-30 19:11 34.15733 -114.31985 37829 ft 516 kts 282°
2026-04-30 19:12 34.17490 -114.40387 37831 ft 517 kts 282°
2026-04-30 19:12 34.19249 -114.48836 37831 ft 518 kts 282°
2026-04-30 19:13 34.22754 -114.65757 37837 ft 520 kts 283°
2026-04-30 19:14 34.24019 -114.74301 37834 ft 520 kts 277°
2026-04-30 19:14 34.25124 -114.82939 37842 ft 520 kts 278°
2026-04-30 19:15 34.26280 -114.91562 37849 ft 520 kts 278°
2026-04-30 19:15 34.27954 -115.04524 37850 ft 520 kts 279°
2026-04-30 19:16 34.29067 -115.13170 37851 ft 520 kts 279°
2026-04-30 19:17 34.30737 -115.26183 37857 ft 523 kts 279°
2026-04-30 19:17 34.32397 -115.39288 37865 ft 526 kts 279°
2026-04-30 19:18 34.34050 -115.52415 37868 ft 527 kts 279°
2026-04-30 19:19 34.35142 -115.61146 37871 ft 527 kts 280°
2026-04-30 19:19 34.36773 -115.74305 37880 ft 527 kts 280°
2026-04-30 19:20 34.37855 -115.83091 37917 ft 527 kts 280°
2026-04-30 19:21 34.39464 -115.96263 37957 ft 528 kts 280°
2026-04-30 19:22 34.41589 -116.13847 37989 ft 527 kts 281°
2026-04-30 19:23 34.44721 -116.40178 37942 ft 527 kts 281°
2026-04-30 19:24 34.46267 -116.53351 37905 ft 526 kts 281°
2026-04-30 19:25 34.48801 -116.75238 37910 ft 525 kts 281°
2026-04-30 19:26 34.50799 -116.92737 37914 ft 523 kts 281°
2026-04-30 19:27 34.52270 -117.05777 37949 ft 522 kts 281°
2026-04-30 19:28 34.53731 -117.18846 37990 ft 521 kts 281°
2026-04-30 19:29 34.55652 -117.36234 38017 ft 519 kts 281°
2026-04-30 19:30 34.57540 -117.53561 38004 ft 517 kts 281°
2026-04-30 19:31 34.59398 -117.70840 37954 ft 515 kts 281°
2026-04-30 19:31 34.60766 -117.83713 37963 ft 514 kts 281°
2026-04-30 19:32 34.61673 -117.92320 37982 ft 514 kts 281°
2026-04-30 19:32 34.62573 -118.00922 37988 ft 513 kts 281°
2026-04-30 19:33 34.63518 -118.08063 37986 ft 509 kts 287°
2026-04-30 19:33 34.65500 -118.16304 38004 ft 508 kts 289°
2026-04-30 19:34 34.67395 -118.24501 38006 ft 507 kts 289°
2026-04-30 19:35 34.70290 -118.36801 37298 ft 498 kts 289°
2026-04-30 19:35 34.71223 -118.40849 36634 ft 498 kts 288°
2026-04-30 19:35 34.72167 -118.44910 35986 ft 500 kts 289°
2026-04-30 19:35 34.73120 -118.48982 35321 ft 501 kts 289°
2026-04-30 19:36 34.74071 -118.53072 34660 ft 503 kts 288°
2026-04-30 19:36 34.75018 -118.57176 33998 ft 505 kts 288°
2026-04-30 19:36 34.76911 -118.65375 32640 ft 508 kts 288°
2026-04-30 19:37 34.77870 -118.69521 31968 ft 510 kts 288°
2026-04-30 19:37 34.78829 -118.73694 31298 ft 512 kts 288°
2026-04-30 19:37 34.79790 -118.77886 30622 ft 515 kts 288°
2026-04-30 19:37 34.80748 -118.82071 29932 ft 511 kts 288°
2026-04-30 19:38 34.81697 -118.86218 29225 ft 505 kts 288°
2026-04-30 19:38 34.82635 -118.90320 28567 ft 501 kts 288°
2026-04-30 19:38 34.83566 -118.94401 27915 ft 498 kts 288°
2026-04-30 19:38 34.84487 -118.98446 27263 ft 494 kts 288°
2026-04-30 19:39 34.85398 -119.02453 26612 ft 490 kts 288°
2026-04-30 19:39 34.86302 -119.06440 25969 ft 485 kts 288°
2026-04-30 19:39 34.87197 -119.10389 25338 ft 482 kts 288°
2026-04-30 19:39 34.88086 -119.14316 24709 ft 479 kts 288°
2026-04-30 19:40 34.88969 -119.18226 24078 ft 475 kts 287°
2026-04-30 19:40 34.89830 -119.22047 23441 ft 472 kts 287°
2026-04-30 19:40 34.90692 -119.25877 22800 ft 467 kts 287°
2026-04-30 19:40 34.91558 -119.29733 22173 ft 464 kts 287°
2026-04-30 19:41 34.92396 -119.33465 21576 ft 460 kts 287°
2026-04-30 19:41 34.93235 -119.37210 20972 ft 456 kts 288°
2026-04-30 19:41 34.94066 -119.40924 20377 ft 453 kts 288°
2026-04-30 19:41 34.94889 -119.44613 19778 ft 449 kts 288°
2026-04-30 19:42 34.95704 -119.48269 19190 ft 446 kts 288°
2026-04-30 19:42 34.96515 -119.51910 18604 ft 442 kts 288°
2026-04-30 19:42 34.97315 -119.55510 17995 ft 438 kts 288°
2026-04-30 19:42 34.98108 -119.59079 17412 ft 435 kts 288°
2026-04-30 19:43 34.98896 -119.62630 16848 ft 432 kts 287°
2026-04-30 19:43 34.99674 -119.66150 16277 ft 428 kts 287°
2026-04-30 19:43 35.00446 -119.69646 15712 ft 425 kts 287°
2026-04-30 19:44 35.01973 -119.76567 14603 ft 419 kts 287°
2026-04-30 19:44 35.02727 -119.79994 14053 ft 416 kts 287°
2026-04-30 19:44 35.03465 -119.83360 13483 ft 414 kts 287°
2026-04-30 19:44 35.04203 -119.86726 12934 ft 412 kts 287°
2026-04-30 19:45 35.04935 -119.90068 12399 ft 390 kts 287°
2026-04-30 19:45 35.05606 -119.93152 11895 ft 361 kts 286°
2026-04-30 19:45 35.06231 -119.96008 11442 ft 338 kts 286°
2026-04-30 19:45 35.06822 -119.98703 11015 ft 320 kts 285°
2026-04-30 19:46 35.07383 -120.01272 10606 ft 309 kts 285°
2026-04-30 19:46 35.07932 -120.03796 10207 ft 307 kts 284°
2026-04-30 19:46 35.08480 -120.06316 9799 ft 306 kts 284°
2026-04-30 19:46 35.09021 -120.08811 9388 ft 303 kts 284°
2026-04-30 19:47 35.09561 -120.11295 8986 ft 302 kts 284°
2026-04-30 19:47 35.09915 -120.12931 8725 ft 300 kts 285°
2026-04-30 19:47 35.10626 -120.16211 8199 ft 298 kts 285°
2026-04-30 19:47 35.11150 -120.18634 7821 ft 294 kts 285°
2026-04-30 19:48 35.11648 -120.20978 7431 ft 292 kts 284°
2026-04-30 19:48 35.11835 -120.23437 7036 ft 292 kts 271°
2026-04-30 19:48 35.11836 -120.25885 6684 ft 291 kts 270°
2026-04-30 19:48 35.11850 -120.28346 6290 ft 289 kts 272°
2026-04-30 19:49 35.11894 -120.30785 5905 ft 286 kts 272°
2026-04-30 19:49 35.11963 -120.35576 5155 ft 279 kts 272°
2026-04-30 19:49 35.11990 -120.37931 4786 ft 275 kts 273°
2026-04-30 19:50 35.12020 -120.40249 4422 ft 272 kts 273°
2026-04-30 19:50 35.12068 -120.42553 4052 ft 269 kts 276°
2026-04-30 19:50 35.12645 -120.44662 3802 ft 256 kts 303°
2026-04-30 19:50 35.13646 -120.46441 3728 ft 242 kts 308°
2026-04-30 19:51 35.14560 -120.48033 3444 ft 220 kts 307°
2026-04-30 19:51 35.15398 -120.49497 3167 ft 198 kts 307°
2026-04-30 19:51 35.16114 -120.50756 2909 ft 168 kts 308°
2026-04-30 19:51 35.16785 -120.51920 2728 ft 171 kts 308°
2026-04-30 19:52 35.17465 -120.53108 2518 ft 169 kts 308°
2026-04-30 19:52 35.18120 -120.54256 2264 ft 156 kts 307°
2026-04-30 19:52 35.18685 -120.55248 2039 ft 130 kts 307°
2026-04-30 19:52 35.19190 -120.56133 1824 ft 123 kts 308°
2026-04-30 19:53 35.19664 -120.56961 1643 ft 116 kts 307°
2026-04-30 19:53 35.20109 -120.57738 1457 ft 110 kts 307°
2026-04-30 19:53 35.20553 -120.58518 1291 ft 113 kts 306°
2026-04-30 19:53 35.20992 -120.59286 1116 ft 108 kts 306°
2026-04-30 19:54 35.21422 -120.60043 949 ft 108 kts 304°
2026-04-30 19:54 35.21854 -120.60799 765 ft 108 kts 302°
2026-04-30 19:54 35.22281 -120.61548 595 ft 110 kts 302°
2026-04-30 19:54 35.22714 -120.62320 432 ft 109 kts 303°
2026-04-30 19:55 35.23137 -120.63068 301 ft 102 kts 304°
2026-04-30 19:55 35.23547 -120.63777 185 ft 96 kts 306°
2026-04-30 19:55 35.23891 -120.64380 182 ft 75 kts 306°
2026-04-30 19:55 35.24104 -120.64755 182 ft 33 kts 305°
2026-04-30 19:56 35.24185 -120.64895 182 ft 15 kts 305°
2026-04-30 19:56 35.24262 -120.64912 182 ft 13 kts 40°
2026-04-30 19:56 35.24249 -120.64814 181 ft 13 kts 125°
2026-04-30 19:56 35.24197 -120.64726 181 ft 13 kts 125°
2026-04-30 19:57 35.24145 -120.64637 181 ft 13 kts 126°
2026-04-30 19:57 35.24094 -120.64548 181 ft 13 kts 123°
2026-04-30 19:57 35.24046 -120.64460 181 ft 13 kts 124°
2026-04-30 19:57 35.23996 -120.64372 181 ft 13 kts 124°
2026-04-30 19:58 35.23945 -120.64282 181 ft 13 kts 124°
2026-04-30 19:58 35.23886 -120.64200 181 ft 13 kts 124°
2026-04-30 19:58 35.23838 -120.64112 181 ft 12 kts 124°
2026-04-30 19:58 35.23791 -120.64023 181 ft 13 kts 118°
2026-04-30 19:59 35.23746 -120.63931 181 ft 12 kts 126°
2026-04-30 19:59 35.23693 -120.63838 181 ft 15 kts 125°
2026-04-30 19:59 35.23581 -120.63637 181 ft 9 kts 106°
2026-04-30 20:00 35.23601 -120.63586 181 ft 7 kts 41°
2026-04-30 20:00 35.23628 -120.63569 181 ft 2 kts 338°
2026-04-30 20:00 35.23630 -120.63574 181 ft 0 kts 307°
2026-04-30 20:12 35.23630 -120.63606 180 ft 7 kts 245°
2026-04-30 20:12 35.23608 -120.63624 180 ft 0 kts 205°